Location: St. Louis
(38.6270°N, 90.1994°W)
Time: 08:22:13
(UTC-06:00)

deb Explorer IX - Pass Details

Date: 06 December 2021
Orbit: 544 x 1082 km, 38.8° (Epoch: 19 January)

Event Time Altitude Azimuth Distance (km) Brightness Sun altitude
Rises 13:32:57 0° 280° (W) 2,808 ? 24.4°
Reaches altitude 10° 13:35:22 10° 274° (W) 1,859 ? 24.2°
Maximum altitude 13:39:21 43° 203° (SSW) 773 ? 23.8°
Drops below altitude 10° 13:43:13 10° 131° (SE) 1,799 ? 23.5°
Sets 13:45:31 0° 124° (SE) 2,706 ? 23.3°
